Location: Newark
(51.0500°N, 12.4500°E)
Time: 00:49:48
(UTC+00:00)

Tiros 1 - Pass Details

Date: 25 February 2020
Orbit: 630 x 664 km, 48.4° (Epoch: 08 April)

Event Time Altitude Azimuth Distance (km) Brightness Sun altitude
Rises 03:58:40 0° 273° (W) 2,924 - -20.5°
Reaches altitude 10° 04:01:01 10° 269° (W) 2,013 - -20.1°
Exits shadow 04:04:29 44° 239° (WSW) 871 7.3 -19.6°
Maximum altitude 04:05:32 56° 192° (SSW) 751 7.3 -19.4°
Drops below altitude 10° 04:10:03 10° 114° (ESE) 2,006 10.5 -18.7°
Sets 04:12:24 0° 110° (ESE) 2,914 11.6 -18.3°
